Location: Macksville High School
(37.9611°N, 99.9654°W)
Time: 18:57:48
(UTC+00:00)

Nadezhda 4 Rocket - Pass Details

Date: 17 January 2021
Orbit: 949 x 993 km, 82.9° (Epoch: 26 February)

Event Time Altitude Azimuth Distance (km) Brightness Sun altitude
Rises 12:56:22 0° 350° (N) 3,638 6.7 -11.3°
Reaches altitude 10° 12:58:53 10° 349° (N) 2,685 6.0 -10.9°
Maximum altitude 13:04:59 72° 266° (W) 996 3.9 -9.7°
Drops below altitude 10° 13:11:01 10° 183° (S) 2,663 6.5 -8.6°
Sets 13:13:30 0° 181° (S) 3,606 7.2 -8.1°
